Location: Dehesa de la Cepeda
(40.6574°N, 4.3013°W)
Time: 15:45:44
(UTC+00:00)

Transit 2A Rocket - Pass Details

Date: 02 August 2021
Orbit: 586 x 916 km, 66.7° (Epoch: 23 September)

Event Time Altitude Azimuth Distance (km) Brightness Sun altitude
Rises 23:28:53 0° 324° (NW) 3,321 9.3 -30.5°
Reaches altitude 10° 23:31:18 10° 319° (NW) 2,433 8.3 -30.6°
Enters shadow 23:35:39 43° 279° (W) 1,190 6.0 -30.8°
